User: anonymous   Login
Location: Sunrise Point
(46.9200°N, 121.5900°W)
Time: 16:23:07
(UTC-08:00)
Language:

Cosmos 2058 - Orbit

View from above orbital plane
View from above orbital plane
View from above satellite
View from above satellite

Ground track
Ground track

The orbit data is extracted from the following two-line orbital elements,

1 20465U 90010A   14329.16258677  .00002800  00000-0  25010-3 0  2879
2 20465 082.4928 065.9206 0016136 196.9968 163.0715 14.95487079345464
Epoch (UTC): 25 November 2014 03:54:07
Eccentricity: 0.0016136
inclination: 82.4928°
perigee height: 569 km
apogee height: 592 km
right ascension of ascending node: 65.9206°
argument of perigee: 196.9968°
revolutions per day: 14.95487079
mean anomaly at epoch: 163.0715°
orbit number at epoch: 34546

The dashed part of the orbit path shows where the satellite is in the earth's shadow,  

DLR